Regional Weather Roundup
Issued by NWS

Home | Current Version | Previous Version | Text Only | Print | Product List | Glossary Off
Versions: 1 2 3 4 5 6 7 8 9 10 11 12 13 14 15 16 17 18 19 20 21 22 23 24 25 26 27 28 29 30 31 32 33 34 35 36 37 38 39 40 41 42 43 44 45 46 47 48 49 50

000
ASUS43 KOAX 211202
RWRNE

WEATHER ROUNDUP FOR NEBRASKA
NATIONAL WEATHER SERVICE OMAHA NE
600 AM CST SUN JAN 21 2018

NOTES: SATELLITE DATA IS BEING USED TO AUGMENT CLOUD COVER ABOVE
       12000 FEET.
       "FAIR" INDICATES FEW OR NO CLOUDS BELOW 12,000 FEET WITH NO
       SIGNIFICANT WEATHER AND/OR OBSTRUCTIONS TO VISIBILITY.


NEZ001>004-019>022-054>056-211300-
NEBRASKA PANHANDLE

CITY           SKY/WX    TMP DP  RH WIND       PRES   REMARKS
SCOTTSBLUFF    FLURRIES  29  27  92 NE15      29.89S WCI  18
6HR MIN TEMP:  29; 6HR MAX TEMP:  32; 6HR PCP:  0.03;

ALLIANCE       LGT SNOW  28  28 100 N14       29.88S FOG     WCI  17
6HR MIN TEMP:  28; 6HR MAX TEMP:  30; 6HR PCP: TRACE;

CHADRON        FOG       29  29 100 N7        29.96R VSB 3/4 WCI  22
6HR MIN TEMP:  29; 6HR MAX TEMP:  31; 6HR PCP: TRACE;

GORDON         LGT SNOW  30  28  93 N8        29.91R WCI  23
6HR MIN TEMP:  30; 6HR MAX TEMP:  32; 6HR PCP:  0.01;

KIMBALL        LGT SNOW  28  28  98 N12       29.83S WCI  18
SIDNEY         LGT SNOW  29  28  96 NE13      29.84S FOG     WCI  19
6HR MIN TEMP:  29; 6HR MAX TEMP:  31; 6HR PCP:  0.01;

$$

NEZ057>060-069>072-079>082-211300-
SOUTHWEST NEBRASKA

CITY           SKY/WX    TMP DP  RH WIND       PRES   REMARKS
NORTH PLATTE   CLOUDY    33  29  85 NE16      29.82R WCI  23
6HR MIN TEMP:  32; 6HR MAX TEMP:  34;

IMPERIAL       CLOUDY    32  30  92 N17       29.80F WCI  21
6HR MIN TEMP:  30; 6HR MAX TEMP:  32;

LEXINGTON      CLOUDY    33  29  85 NE15      29.79F WCI  23
MCCOOK         CLOUDY    32  29  88 N17       29.76F WCI  21
6HR MIN TEMP:  29; 6HR MAX TEMP:  32;

OGALLALA       CLOUDY    34  31  88 N13       29.85S WCI  25
$$

NEZ005>010-023>029-035>040-094-211300-
NORTH CENTRAL NEBRASKA

CITY           SKY/WX    TMP DP  RH WIND       PRES   REMARKS
VALENTINE      CLOUDY    34  32  92 N12       29.92R WCI  25
6HR MIN TEMP:  34; 6HR MAX TEMP:  36;

AINSWORTH      CLOUDY    32  32  98 N17       29.89S WCI  21
BROKEN BOW     CLOUDY    34  29  82 NE13      29.82S WCI  25
6HR MIN TEMP:  33; 6HR MAX TEMP:  34;

O`NEILL        MOCLDY    31  31 100 N9        29.88S WCI  23
ORD            CLOUDY    34  29  82 N14       29.83R WCI  25
6HR MIN TEMP:  31; 6HR MAX TEMP:  34;

THEDFORD       CLOUDY    33  31  93 N13       29.87S WCI  24
$$

NEZ041-046>049-061>064-073>077-083>087-211300-
SOUTH CENTRAL NEBRASKA

CITY           SKY/WX    TMP DP  RH WIND       PRES   REMARKS
GRAND ISLAND   CLOUDY    33  31  92 N14       29.80S WCI  23
6HR MIN TEMP:  33; 6HR MAX TEMP:  34;

AURORA         CLOUDY    33  31  93 N12       29.78F WCI  24
HASTINGS       CLOUDY    33  31  92 NE12      29.77S WCI  24
6HR MIN TEMP:  33; 6HR MAX TEMP:  35;

HEBRON         FOG       40  39  97 NE10      29.74F VSB 1/2 WCI  34
HOLDREGE       CLOUDY    32  32 100 N14       29.76F FOG     WCI  22
KEARNEY        CLOUDY    32  30  92 N15       29.79R WCI  22
YORK           CLOUDY    36  36 100 NE13      29.79F WCI  27
$$

NEZ011>018-030>034-042>045-211300-
NORTHEAST NEBRASKA

CITY           SKY/WX    TMP DP  RH WIND       PRES   REMARKS
NORFOLK        CLOUDY    46  30  53 NE13      29.84S
6HR MIN TEMP:  31; 6HR MAX TEMP:  46;

ALBION         CLOUDY    33  31  91 NE15      29.83F WCI  23
BLAIR          CLOUDY    38  36  90 NE10      29.82S WCI  31
COLUMBUS       CLOUDY    36  32  85 N8        29.83S WCI  30
FREMONT        CLOUDY    38  35  87 NE7       29.83F WCI  33
TEKAMAH        CLOUDY    35  31  85 N12       29.85S WCI  27
6HR MIN TEMP:  35; 6HR MAX TEMP:  36;

WAYNE          MOCLDY    31  30  96 CALM      29.87R
$$

NEZ050>053-065>068-078-088>093-211300-
SOUTHEAST NEBRASKA

CITY           SKY/WX    TMP DP  RH WIND       PRES   REMARKS
LINCOLN        CLOUDY    39  37  92 N10       29.79F FOG     WCI  32
6HR MIN TEMP:  39; 6HR MAX TEMP:  41;

OMAHA EPPLEY   CLOUDY    39  36  89 N9        29.83S WCI  33
6HR MIN TEMP:  37; 6HR MAX TEMP:  40;

BEATRICE       FOG       41  41 100 NE9       29.76S VSB 1
FALLS CITY     FOG       42  41  96 NE5       29.77S VSB 1/4
6HR MIN TEMP:  37; 6HR MAX TEMP:  42;

NEBRASKA CITY  FOG       39  39 100 NE5       29.79S VSB 1/2
PLATTSMOUTH    CLOUDY    38  38 100 NE3       29.80F FOG
$$

NEZ044-045-051>053-067-211300-
OMAHA AREA

CITY           SKY/WX    TMP DP  RH WIND       PRES   REMARKS
OMAHA EPPLEY   CLOUDY    39  36  89 N9        29.83S WCI  33
6HR MIN TEMP:  37; 6HR MAX TEMP:  40;

BLAIR          CLOUDY    38  36  90 NE10      29.82S WCI  31
FREMONT        CLOUDY    38  35  87 NE7       29.83F WCI  33
MILLARD        CLOUDY    42  38  87 NE3       29.81F
OFFUTT AFB     CLOUDY    39  37  91 NE9       29.81R WCI  33
PLATTSMOUTH    CLOUDY    38  38 100 NE3       29.80F FOG
WAHOO          CLOUDY    39  35  85 NE9       29.81F WCI  33
$$



USA.gov is the U.S. government's official web portal to all federal, state and local government web resources and services.